Location: Sternwarte Stuttgart
(48.7670°N, 9.1830°E)
Time: 11:41:59
(UTC+02:00)

Daily predictions for brighter satellites

Satellite Brightness Start Highest point End
(mag) Time Altitude Azimuth Time Altitude Azimuth Time Altitude Azimuth
Gbstr 26 Del rocket 3.9 21:37:46 10° W 21:43:30 62° N 21:48:06 10° E
SPOT 5 3.3 21:40:29 10° SSE 21:45:43 65° ENE 21:51:03 10° N
Meteor 1-27 Rocket 3.7 21:40:31 10° N 21:46:09 81° E 21:51:40 10° SSE
NOSS 2-2 (E) 3.9 21:43:24 10° SW 21:47:43 83° NW 21:53:01 10° NE
PSLV R/B 3.6 21:46:48 10° SE 21:49:36 42° ENE 21:52:26 10° N
Cosmos 1184 Rocket 3.8 21:47:21 10° SSE 21:50:17 29° E 21:53:14 10° NNE
DNEPR-1 R/B 4.1 21:50:40 10° NW 21:56:28 75° NE 22:01:12 10° SE
Cosmos 1674 Rocket 4.5 21:52:33 10° NNW 21:56:55 52° W 22:01:12 10° S
Intercosmos 25 4.3 21:54:40 10° SE 21:57:25 22° E 21:59:58 10° NE
Cosmos 1862 3.4 21:54:49 10° S 21:58:50 60° E 22:02:53 10° NNE
Okean 3 3.5 21:56:50 10° N 22:01:09 72° E 22:05:24 10° SSE
Okean 2 Rocket 3.6 21:57:28 10° SSE 22:01:33 39° E 22:05:41 10° NNE
Cosmos 2341 Rocket 4.1 21:57:45 10° S 22:03:57 63° E 22:10:07 10° NNE
ISS -2.2 22:03:38 10° SSW 22:06:17 23° SE 22:08:57 10° E
MetOp-B 4.2 22:01:47 10° SSE 22:07:08 81° ENE 22:12:31 10° NNW
COS B Rocket 3.4 22:05:42 10° N 22:09:55 82° W 22:13:42 10° S
Sich 1 Rocket 4.0 22:06:38 10° SSW 22:11:12 70° WNW 22:15:48 10° N
Cosmos 1606 3.5 22:07:53 10° NNW 22:11:45 53° W 22:15:34 10° S
Envisat 3.6 22:07:30 10° S 22:12:29 57° W 22:17:31 10° NNW
Timation 2 Rocket 3.9 22:07:42 10° NNW 22:13:46 85° ENE 22:19:24 12° SSE
NOSS 5 (C) 4.3 22:10:47 10° SSW 22:13:58 52° SE 22:17:02 10° NE
APEX 4.5 22:10:27 10° SSE 22:14:02 30° ESE 22:18:31 10° NE
USA 234 4.5 22:11:31 10° E 22:15:41 18° ESE 22:19:50 10° SSE
Cosmos 1782 Rocket 3.6 22:11:28 10° S 22:15:53 65° E 22:20:21 10° NNE
SL-8 Rocket 4.3 22:12:55 10° SSE 22:18:54 49° E 22:24:53 10° NNE
Cosmos 962 Rocket 4.5 22:13:17 10° S 22:19:26 79° E 22:25:43 10° NNE
ATLAS 5 CENTAUR R/B 4.5 22:17:56 10° WNW 22:22:07 20° WSW 22:26:29 10° SSW
CZ-4C R/B 4.3 22:20:39 14° SE 22:23:34 36° ENE 22:27:23 10° N
Cosmos 1420 Rocket 4.2 22:18:36 10° S 22:23:40 51° ESE 22:28:43 10° NNE
ARGOS 3.2 22:19:08 11° SSE 22:24:15 72° ENE 22:29:37 10° N
Cosmos 614 Rocket 4.0 22:19:43 10° NNW 22:24:51 75° ENE 22:29:09 14° SSE
Cosmos 1975 Rocket 3.2 22:22:51 10° NNW 22:27:12 74° W 22:31:30 10° S
Cosmos 2154 Rocket 4.3 22:24:42 10° SSW 22:30:54 71° WNW 22:37:07 10° N
COSMOS 2487 3.7 22:29:05 10° NW 22:32:28 38° WSW 22:35:50 10° S
CARTOSAT-1 4.4 22:30:09 16° SE 22:33:07 36° ENE 22:37:05 10° N
CZ-4 R/B 4.2 22:29:43 10° NNE 22:34:12 43° E 22:38:02 13° SSE
Cosmos 1140 Rocket 3.8 22:29:10 10° NNW 22:34:16 63° WSW 22:39:00 12° S
H-2A R/B 2.6 22:30:41 15° SE 22:34:53 49° ENE 22:39:58 10° N
Cosmos 1295 Rocket 4.5 22:33:16 10° S 22:39:34 81° E 22:45:52 10° N
Cosmos 1536 Rocket 3.9 22:35:36 10° N 22:40:00 52° ENE 22:43:01 19° SSE
Cosmos 1452 Rocket 4.0 22:36:33 10° SSW 22:41:47 66° WNW 22:47:05 10° NNE
Cosmos 1833 Rocket 2.8 22:37:09 10° NNW 22:42:47 71° ENE 22:46:55 19° SE
Cosmos 2084 3.1 22:39:00 10° SW 22:42:50 89° SE 22:46:43 10° NE
CZ-4B R/B 3.4 22:41:09 10° NNE 22:46:09 74° ESE 22:51:00 10° S
AVUM R/B 3.8 22:43:36 10° NNW 22:47:04 52° NE 22:48:57 24° SE
Cosmos 2278 Rocket 2.3 22:41:52 10° SSW 22:47:33 84° WNW 22:53:17 10° NNE
Meteor 1-18 Rocket 4.4 22:43:26 10° N 22:49:20 69° ENE 22:53:44 19° SSE
SPOT 1/Viking Rocket 3.9 22:45:27 12° S 22:50:17 64° WSW 22:55:30 10° NNW
Cosmos 1844 Rocket 3.9 22:46:02 10° SW 22:51:26 44° NW 22:56:50 10° NNE
Cosmos 1844 4.5 22:46:47 10° SW 22:52:28 57° NW 22:58:12 10° NNE
USA 245 4.1 22:52:08 14° SSW 22:54:53 45° W 22:58:58 10° NNW
Meteor 1-14 Rocket 4.2 22:51:31 10° S 22:57:11 80° E 23:02:47 10° NNE
Okean 1 3.9 22:53:49 10° N 22:57:44 43° ENE 22:59:40 25° SE
Cosmos 2366 rocket 4.0 22:53:23 12° S 22:59:08 71° E 23:05:28 10° NNE
USA 229 DEB 3.8 22:54:58 10° NW 23:02:05 77° SW 23:07:08 21° SSE
USA 229 3.8 22:55:04 10° NW 23:02:11 78° SW 23:07:14 21° SSE
Cosmos 2082 Rocket 2.4 22:57:53 10° NNW 23:03:35 70° WSW 23:07:28 21° SSE
Landsat 7 3.8 23:00:33 20° SSE 23:03:50 85° WSW 23:08:38 10° NNW
YAOGAN 6 4.4 23:00:58 10° SSW 23:03:56 25° W 23:06:55 10° NW
Cosmos 1242 Rocket 4.2 23:01:30 10° NNW 23:04:45 30° W 23:07:50 11° SSW
Cosmos 2151 Rocket 3.6 23:03:58 17° S 23:07:27 83° E 23:12:01 10° N
Cosmos 1825 4.4 23:06:36 10° SW 23:09:49 26° WNW 23:13:04 10° NNW
SL-8 R/B 3.6 23:08:25 10° W 23:13:15 88° S 23:18:05 10° E
Cosmos 1025 Rocket 4.2 23:15:33 10° N 23:19:27 30° ENE 23:21:05 23° ESE
Terra 1.8 23:16:48 25° SSE 23:19:33 84° WSW 23:24:21 10° NNW
NOSS 3-1 (A) 4.3 23:13:03 10° NW 23:20:16 60° NE 23:26:36 17° ESE
Cosmos 2297 3.7 23:16:39 10° SSW 23:22:22 86° WNW 23:28:10 10° NNE
IGS 5A 3.4 23:21:14 30° S 23:23:14 83° WSW 23:27:27 10° NNW
Cosmos 2218 Rocket 4.3 23:20:06 10° SSW 23:26:28 68° WNW 23:32:53 10° N
DMSP B5D2-2 4.0 23:23:21 10° NNE 23:28:35 73° ESE 23:31:47 24° S
Cosmos 1300 Rocket 3.7 23:26:51 32° SSE 23:28:41 60° E 23:33:06 10° NNE
Cosmos 1812 2.8 23:25:14 10° NNW 23:29:07 72° W 23:30:42 34° S
Spot 4 3.8 23:27:00 29° SSE 23:29:31 88° WSW 23:34:25 10° NNW
Gbstr 26 Del rocket 3.0 23:25:36 10° WNW 23:30:42 76° SSW 23:32:33 34° SE
Okean 1 Rocket 3.3 23:29:27 34° SSE 23:31:08 55° E 23:35:31 10° NNE
Okean 1-7 Rocket 3.5 23:31:01 10° N 23:35:34 79° E 23:37:20 36° SSE
Iridium 4 Rocket 4.3 23:30:23 10° N 23:36:03 48° E 23:38:45 29° SE
Cosmos 1727 Rocket 4.4 23:31:21 10° NNW 23:37:24 58° W 23:41:48 19° SSW
SAR-Lupe-2 3.5 23:37:14 44° S 23:38:15 77° WSW 23:41:51 10° NNW
Timation 1 Rocket 4.3 23:35:25 18° SSW 23:39:57 69° ESE 23:45:56 10° NE
Lacrosse 5 3.1 23:41:07 24° ESE 23:41:07 24° ESE 23:44:17 10° ENE
Cosmos 1315 Rocket 4.5 23:40:11 19° E 23:40:12 19° E 23:43:01 10° NE
ATLAS 2AS CENTAUR R/B 4.0 23:33:27 10° NW 23:41:12 44° NNE 23:48:43 10° ESE
ISS -3.4 23:39:11 10° WSW 23:42:27 83° NNW 23:45:44 10° ENE
Lacrosse 5 rocket 3.4 23:45:34 12° E 23:45:34 12° E 23:46:00 10° ENE
Cosmos 1331 Rocket 3.9 23:41:37 27° S 23:44:23 71° ESE 23:49:32 10° NNE
ASTEX 1 3.3 23:39:26 10° N 23:44:24 83° E 23:46:46 32° S
Spot 2 3.9 23:44:43 10° NNE 23:49:08 76° ESE 23:50:35 40° S
NOSS 3-1 (C) 4.0 23:43:21 10° NW 23:50:47 89° SW 23:55:39 27° SE
Cosmos 1110 Rocket 3.9 23:47:26 22° SSW 23:50:49 89° ESE 23:56:04 10° NNE
Meteor 1-19 Rocket 4.3 23:47:48 10° N 23:53:42 76° ENE 23:56:20 34° SSE
